Borger, TX

6:08 AM CDT on September 30, 2016 (GMT -0500)
Hutchinson County

Weather History for KBGD - October, 2013

Change the Weather History Date:

Tuesday, October 1, 2013

  Actual Average Record
Temperature  
Mean Temperature 70 °F 66 °F  
Max Temperature 86 °F 78 °F 97 °F (2000)
Min Temperature 54 °F 54 °F 37 °F (1965)
Degree Days  
Heating Degree Days 0 3  
Month to date heating degree days 0 3  
Since 1 July heating degree days 3 31  
Cooling Degree Days 5 4  
Month to date cooling degree days 5 4  
Year to date cooling degree days 2167 1789  
Growing Degree Days 20 (Base 50)    
Moisture  
Dew Point 53 °F    
Average Humidity 57    
Maximum Humidity 86    
Minimum Humidity 28    
Precipitation  
Precipitation 0.00 in 0.08 in 0.68 in (1981)
Month to date precipitation 0.00 0.08  
Year to date precipitation 13.82 18.47  
Snow  
Snow 0.00 in - 0.00 in (2013)
Month to date snowfall 0.0  
Since 1 July snowfall 0.0  
Since 1 September snowfall 0.0  
Snow Depth 0.00 in    
Sea Level Pressure  
Sea Level Pressure 29.77 in    
Wind  
Wind Speed 7 mph (ESE)    
Max Wind Speed 21 mph    
Max Gust Speed 30 mph    
Visibility 10 miles    
Events      
T = Trace of Precipitation, MM = Missing Value Source: NWS Daily Summary

Daily Weather History Graph

Daily Weather History Graph

Search for Another Location

Airport or City:

Trip Planner

Search our weather history database for the weather conditions in past years. The results will help you decide how hot, cold, wet, or windy it might be!

Date:

Astronomy

Oct. 01, 2013 Rise Set
Actual Time 7:40 AM CDT 7:28 PM CDT
Civil Twilight 7:15 AM CDT 7:54 PM CDT
Nautical Twilight 6:45 AM CDT 8:23 PM CDT
Astronomical Twilight 6:15 AM CDT 8:53 PM CDT
Moon 4:22 AM CDT (10/1) 5:28 PM CDT (10/1)
Length of Visible Light 12h 39m
Length of Day
11h 48m
Waning Crescent, 12% of the Moon is Illuminated
Oct 1
Waning Crescent
Oct 4
New
Oct 11
First Quarter
Oct 18
Full
Oct 26
Last Quarter

Hourly Weather History & Observations

Time (CDT) Temp. Heat Index Dew Point Humidity Pressure Visibility Wind Dir Wind Speed Gust Speed Precip Events Conditions
12:51 AM 66.9 °F - 51.1 °F 57% 29.73 in 10.0 mi SSE 11.5 mph - N/A   Clear
1:51 AM 64.9 °F - 51.1 °F 61% 29.71 in 10.0 mi SSE 13.8 mph 20.7 mph N/A   Clear
2:51 AM 63.0 °F - 52.0 °F 67% 29.71 in 10.0 mi SSE 11.5 mph 21.9 mph N/A   Clear
3:51 AM 62.1 °F - 51.1 °F 67% 29.70 in 10.0 mi Calm Calm - N/A   Clear
4:51 AM 59.0 °F - 51.1 °F 75% 29.71 in 10.0 mi Calm Calm - N/A   Clear
5:51 AM 57.9 °F - 52.0 °F 81% 29.72 in 10.0 mi Calm Calm - N/A   Clear
6:51 AM 57.0 °F - 51.1 °F 81% 29.75 in 10.0 mi Calm Calm - N/A   Clear
7:51 AM 55.0 °F - 51.1 °F 86% 29.77 in 10.0 mi Calm Calm - N/A   Clear
8:51 AM 60.1 °F - 52.0 °F 75% 29.79 in 10.0 mi Calm Calm - N/A   Clear
9:51 AM 60.1 °F - 51.1 °F 72% 29.80 in 10.0 mi Calm Calm - N/A   Clear
10:51 AM 68.0 °F - 50.0 °F 52% 29.79 in 10.0 mi North 4.6 mph - N/A   Clear
11:51 AM 72.0 °F - 52.0 °F 49% 29.80 in 10.0 mi Calm Calm - N/A   Clear
12:51 PM 78.1 °F - 48.9 °F 36% 29.79 in 10.0 mi ESE 9.2 mph - N/A   Clear
1:51 PM 82.0 °F - 46.0 °F 28% 29.78 in 10.0 mi ESE 6.9 mph - N/A   Clear
2:51 PM 84.0 °F - 50.0 °F 31% 29.76 in 10.0 mi East 9.2 mph - N/A   Clear
3:51 PM 84.9 °F - 48.9 °F 29% 29.75 in 10.0 mi ESE 11.5 mph 17.3 mph N/A   Clear
4:51 PM 84.0 °F - 51.1 °F 32% 29.76 in 10.0 mi ESE 11.5 mph 19.6 mph N/A   Clear
5:51 PM 82.9 °F 81.8 °F 53.1 °F 36% 29.78 in 10.0 mi SE 10.4 mph - N/A   Clear
6:51 PM 82.0 °F 81.7 °F 57.0 °F 42% 29.78 in 10.0 mi East 8.1 mph 16.1 mph N/A   Clear
7:51 PM 79.0 °F - 59.0 °F 50% 29.79 in 10.0 mi East 6.9 mph - N/A   Clear
8:51 PM 78.1 °F - 60.1 °F 54% 29.80 in 10.0 mi East 9.2 mph 17.3 mph N/A   Clear
9:51 PM 73.9 °F - 60.1 °F 62% 29.82 in 10.0 mi East 8.1 mph - N/A   Clear
10:51 PM 72.0 °F - 57.9 °F 61% 29.81 in 10.0 mi ESE 10.4 mph - N/A   Clear
11:51 PM 73.0 °F - 59.0 °F 61% 29.79 in 10.0 mi SSE 17.3 mph 27.6 mph N/A   Clear